Weather History for Charleston, SC

Change the Weather History Date:

Monday, November 7, 2011

  Actual Average (KCHS) Record (KCHS)
Temperature  
Mean Temperature 64 °F 61 °F  
Max Temperature 75 °F 72 °F 84 °F (1986)
Min Temperature 53 °F 50 °F 26 °F (1939)
Degree Days  
Heating Degree Days 1 6  
Month to date heating degree days 35  
Since 1 July heating degree days 104  
Cooling Degree Days 0 1  
Month to date cooling degree days 12  
Year to date cooling degree days 2276  
Growing Degree Days 14 (Base 50)    
Moisture  
Dew Point 54 °F    
Average Humidity 74    
Maximum Humidity 94    
Minimum Humidity 44    
Precipitation  
Precipitation 0.00 in 0.09 in 1.25 in (2006)
Month to date precipitation 0.59  
Year to date precipitation 46.08  
Sea Level Pressure  
Sea Level Pressure 30.29 in    
Wind  
Wind Speed 8 mph (NNE)    
Max Wind Speed 16 mph    
Max Gust Speed 22 mph    
Visibility 10 miles    
Events      
T = Trace of Precipitation, MM = Missing Value Source: NWS Daily Summary

Daily Weather History Graph

Daily Weather History Graph

Search for Another Location

Airport:

Trip Planner

Search our weather history database for the weather conditions in past years. The results will help you decide how hot, cold, wet, or windy it might be!

Date:

Astronomy

Nov. 07, 2011 Rise Set
Actual Time 6:42 AM EST 5:24 PM EST
Civil Twilight 6:16 AM EST 5:50 PM EST
Nautical Twilight 5:47 AM EST 6:19 PM EST
Astronomical Twilight 5:18 AM EST 6:48 PM EST
Moon 3:29 PM EST (11/7) 3:50 AM EST (11/7)
Length of Visible Light 11h 33m
Length of Day
10h 41m
Waxing Gibbous, 91% of the Moon is Illuminated
Nov 7
Waxing Gibbous
Nov 10
Full
Nov 18
Last Quarter
Nov 25
New
Dec 2
First Quarter

Hourly Weather History & Observations

Time (EST) Temp. Dew Point Humidity Pressure Visibility Wind Dir Wind Speed Gust Speed Precip Events Conditions
12:15 AM 59.0 °F 53.6 °F 82% 30.32 in 10.0 mi North 5.8 mph - 0.00 in   Scattered Clouds
12:35 AM 57.2 °F 53.6 °F 88% 30.32 in 10.0 mi North 6.9 mph - 0.00 in   Clear
12:55 AM 57.2 °F 53.6 °F 88% 30.32 in 10.0 mi North 5.8 mph - 0.00 in   Clear
1:15 AM 57.2 °F 51.8 °F 82% 30.31 in 10.0 mi North 4.6 mph - 0.00 in   Clear
1:35 AM 55.4 °F 51.8 °F 88% 30.31 in 10.0 mi NNW 5.8 mph - 0.00 in   Clear
1:55 AM 55.4 °F 51.8 °F 88% 30.31 in 10.0 mi North 6.9 mph - 0.00 in   Clear
2:15 AM 55.4 °F 51.8 °F 88% 30.31 in 10.0 mi NNW 8.1 mph - 0.00 in   Clear
2:35 AM 55.4 °F 51.8 °F 88% 30.31 in 10.0 mi North 6.9 mph - 0.00 in   Clear
2:55 AM 55.4 °F 51.8 °F 88% 30.31 in 10.0 mi North 9.2 mph - 0.00 in   Clear
3:35 AM 55.4 °F 51.8 °F 88% 30.31 in 10.0 mi North 8.1 mph - 0.00 in   Clear
3:55 AM 55.4 °F 51.8 °F 88% 30.30 in 10.0 mi North 8.1 mph - 0.00 in   Clear
4:15 AM 55.4 °F 51.8 °F 88% 30.30 in 10.0 mi North 8.1 mph - 0.00 in   Clear
4:35 AM 55.4 °F 51.8 °F 88% 30.30 in 10.0 mi North 8.1 mph - 0.00 in   Clear
4:55 AM 55.4 °F 51.8 °F 88% 30.30 in 10.0 mi North 9.2 mph - 0.00 in   Clear
5:15 AM 55.4 °F 51.8 °F 88% 30.31 in 10.0 mi North 9.2 mph - 0.00 in   Clear
5:35 AM 53.6 °F 51.8 °F 94% 30.31 in 10.0 mi North 8.1 mph - 0.00 in   Clear
5:55 AM 53.6 °F 50.0 °F 88% 30.31 in 10.0 mi North 6.9 mph - 0.00 in   Clear
6:15 AM 53.6 °F 51.8 °F 94% 30.31 in 10.0 mi North 6.9 mph - 0.00 in   Clear
6:35 AM 53.6 °F 51.8 °F 94% 30.32 in 10.0 mi North 4.6 mph - 0.00 in   Clear
6:55 AM 53.6 °F 51.8 °F 94% 30.32 in 10.0 mi North 8.1 mph - 0.00 in   Clear
7:15 AM 55.4 °F 51.8 °F 88% 30.32 in 10.0 mi North 5.8 mph - 0.00 in   Clear
7:35 AM 55.4 °F 51.8 °F 88% 30.32 in 9.0 mi North 6.9 mph - 0.00 in   Clear
7:55 AM 57.2 °F 51.8 °F 82% 30.33 in 10.0 mi North 6.9 mph - 0.00 in   Clear
8:15 AM 59.0 °F 53.6 °F 82% 30.33 in 10.0 mi North 6.9 mph - 0.00 in   Clear
8:35 AM 60.8 °F 53.6 °F 77% 30.33 in 9.0 mi NNE 8.1 mph - 0.00 in   Clear
8:55 AM 62.6 °F 53.6 °F 72% 30.34 in 10.0 mi NNE 6.9 mph - 0.00 in   Clear
9:15 AM 64.4 °F 53.6 °F 68% 30.34 in 10.0 mi North 8.1 mph - 0.00 in   Clear
9:55 AM 66.2 °F 55.4 °F 68% 30.33 in 10.0 mi NE 6.9 mph - 0.00 in   Clear
10:15 AM 68.0 °F 55.4 °F 64% 30.33 in 10.0 mi NNE 10.4 mph - 0.00 in   Clear
10:35 AM 69.8 °F 55.4 °F 60% 30.33 in 10.0 mi NE 9.2 mph - 0.00 in   Clear
10:55 AM 71.6 °F 57.2 °F 60% 30.33 in 9.0 mi NE 12.7 mph - 0.00 in   Clear
11:15 AM 71.6 °F 55.4 °F 57% 30.32 in 10.0 mi NE 13.8 mph 18.4 mph 0.00 in   Clear
11:55 AM 73.4 °F 55.4 °F 53% 30.30 in 10.0 mi ENE 13.8 mph - 0.00 in   Scattered Clouds
12:15 PM 73.4 °F 55.4 °F 53% 30.29 in 10.0 mi NE 12.7 mph - 0.00 in   Partly Cloudy
12:35 PM 73.4 °F 55.4 °F 53% 30.28 in 10.0 mi NE 15.0 mph 21.9 mph 0.00 in   Mostly Cloudy
12:55 PM 73.4 °F 55.4 °F 53% 30.28 in 10.0 mi NE 15.0 mph - 0.00 in   Mostly Cloudy
1:15 PM 75.2 °F 55.4 °F 50% 30.27 in 10.0 mi ENE 12.7 mph 21.9 mph 0.00 in   Overcast
1:35 PM 75.2 °F 53.6 °F 47% 30.26 in 10.0 mi NE 16.1 mph - 0.00 in   Mostly Cloudy
1:55 PM 73.4 °F 53.6 °F 50% 30.26 in 10.0 mi NE 13.8 mph - 0.00 in   Mostly Cloudy
2:15 PM 73.4 °F 51.8 °F 47% 30.25 in 10.0 mi NE 15.0 mph - 0.00 in   Mostly Cloudy
2:35 PM 75.2 °F 51.8 °F 44% 30.25 in 10.0 mi NE 15.0 mph - 0.00 in   Scattered Clouds
2:55 PM 73.4 °F 55.4 °F 53% 30.24 in 10.0 mi East 11.5 mph - 0.00 in   Partly Cloudy
3:15 PM 73.4 °F 53.6 °F 50% 30.24 in 10.0 mi ENE 10.4 mph - 0.00 in   Clear
3:35 PM 71.6 °F 57.2 °F 60% 30.25 in 10.0 mi East 10.4 mph - 0.00 in   Clear
3:55 PM 71.6 °F 57.2 °F 60% 30.24 in 10.0 mi ENE 10.4 mph - 0.00 in   Clear
4:35 PM 69.8 °F 57.2 °F 64% 30.24 in 9.0 mi East 10.4 mph - 0.00 in   Clear
4:55 PM 66.2 °F 57.2 °F 73% 30.24 in 10.0 mi East 8.1 mph - 0.00 in   Clear
5:35 PM 64.4 °F 57.2 °F 77% 30.25 in 9.0 mi East 6.9 mph - 0.00 in   Clear
5:55 PM 62.6 °F 57.2 °F 82% 30.25 in 9.0 mi ENE 8.1 mph - 0.00 in   Clear
6:15 PM 64.4 °F 55.4 °F 73% 30.25 in 10.0 mi NE 11.5 mph 16.1 mph 0.00 in   Clear
6:35 PM 64.4 °F 55.4 °F 73% 30.26 in 10.0 mi NE 11.5 mph - 0.00 in   Clear
6:55 PM 64.4 °F 55.4 °F 73% 30.26 in 10.0 mi NE 10.4 mph - 0.00 in   Clear
7:15 PM 62.6 °F 55.4 °F 77% 30.26 in 10.0 mi NE 8.1 mph - 0.00 in   Clear
7:35 PM 62.6 °F 55.4 °F 77% 30.26 in 10.0 mi NE 8.1 mph - 0.00 in   Clear
7:55 PM 62.6 °F 55.4 °F 77% 30.27 in 10.0 mi NE 6.9 mph - 0.00 in   Clear
8:35 PM 62.6 °F 55.4 °F 77% 30.27 in 10.0 mi NE 8.1 mph - 0.00 in   Clear
8:55 PM 62.6 °F 55.4 °F 77% 30.27 in 10.0 mi NE 6.9 mph - 0.00 in   Clear
9:15 PM 62.6 °F 55.4 °F 77% 30.27 in 10.0 mi NE 9.2 mph - 0.00 in   Clear
9:35 PM 62.6 °F 55.4 °F 77% 30.27 in 10.0 mi NE 6.9 mph - 0.00 in   Clear
9:55 PM 60.8 °F 55.4 °F 82% 30.27 in 10.0 mi NE 5.8 mph - 0.00 in   Clear
10:35 PM 59.0 °F 55.4 °F 88% 30.26 in 10.0 mi Calm Calm - 0.00 in   Clear
10:55 PM 59.0 °F 55.4 °F 88% 30.25 in 10.0 mi NNE 4.6 mph - 0.00 in   Clear
11:15 PM 59.0 °F 55.4 °F 88% 30.25 in 10.0 mi NNW 3.5 mph - 0.00 in   Clear
11:35 PM 57.2 °F 53.6 °F 88% 30.25 in 10.0 mi North 3.5 mph - 0.00 in   Clear
11:55 PM 55.4 °F 53.6 °F 94% 30.25 in 10.0 mi Calm Calm - 0.00 in   Clear